| time (UTC) | temp F | wind direction | speed MPH | gust MPH | rain 1hr in | rain 24hr in | rain mn in | humidity % | barometer mb |
| 20260506160800 | 57 | 130 | 1.0 | 5.0 | 0.00 | 0.46 | 0.42 | 94 | 1010.9 |
| 20260506160300 | 57 | 127 | 1.0 | 5.0 | 0.00 | 0.46 | 0.42 | 95 | 1010.9 |
| 20260506155800 | 57 | 114 | 1.0 | 3.0 | 0.00 | 0.48 | 0.42 | 95 | 1010.9 |
| 20260506155300 | 57 | 179 | 1.0 | 5.0 | 0.00 | 0.48 | 0.42 | 95 | 1010.9 |
| 20260506154800 | 57 | 178 | 1.0 | 5.0 | 0.00 | 0.48 | 0.42 | 95 | 1010.9 |
| 20260506154300 | 57 | 272 | 1.0 | 3.0 | 0.00 | 0.48 | 0.42 | 95 | 1010.9 |
| 20260506153259 | 57 | 217 | 0.0 | 3.0 | 0.00 | 0.48 | 0.42 | 95 | 1010.9 |
| 20260506152800 | 57 | 220 | 0.0 | 0.0 | 0.00 | 0.48 | 0.42 | 96 | 1011.2 |
| 20260506152300 | 56 | 219 | 0.0 | 0.0 | 0.00 | 0.48 | 0.42 | 95 | 1011.2 |
| 20260506151800 | 56 | 220 | 0.0 | 0.0 | 0.00 | 0.48 | 0.42 | 95 | 1011.2 |
| 20260506151259 | 56 | 219 | 0.0 | 0.0 | 0.00 | 0.48 | 0.42 | 95 | 1011.1 |
| 20260506150759 | 56 | 218 | 0.0 | 0.0 | 0.00 | 0.49 | 0.42 | 95 | 1011.1 |
| 20260506150304 | 56 | 218 | 0.0 | 2.0 | 0.00 | 0.49 | 0.42 | 95 | 1011.1 |
| 20260506145300 | 56 | 218 | 0.0 | 3.0 | 0.00 | 0.49 | 0.42 | 94 | 1011.2 |
| 20260506144800 | 56 | 20 | 0.0 | 2.0 | 0.00 | 0.49 | 0.42 | 94 | 1011.2 |
| 20260506142801 | 56 | 245 | 2.0 | 5.0 | 0.00 | 0.49 | 0.42 | 94 | 1011.2 |
| 20260506142300 | 57 | 218 | 1.0 | 5.0 | 0.01 | 0.49 | 0.42 | 95 | 1011.2 |
| 20260506141800 | 57 | 222 | 1.0 | 5.0 | 0.01 | 0.49 | 0.42 | 96 | 1011.2 |
| 20260506141300 | 56 | 192 | 2.0 | 5.0 | 0.01 | 0.49 | 0.42 | 96 | 1011.2 |
| 20260506140800 | 56 | 192 | 2.0 | 5.0 | 0.02 | 0.49 | 0.42 | 96 | 1011.2 |
| 20260506140300 | 56 | 259 | 2.0 | 6.0 | 0.02 | 0.49 | 0.42 | 95 | 1011.2 |
| 20260506135800 | 56 | 156 | 2.0 | 9.0 | 0.03 | 0.49 | 0.42 | 95 | 1011.1 |
| 20260506135301 | 56 | 170 | 2.0 | 9.0 | 0.05 | 0.49 | 0.42 | 95 | 1011.1 |
| 20260506134759 | 56 | 134 | 2.0 | 8.0 | 0.07 | 0.49 | 0.42 | 96 | 1011.1 |
| 20260506134300 | 56 | 132 | 2.0 | 5.0 | 0.07 | 0.49 | 0.42 | 96 | 1011.5 |
| 20260506133800 | 56 | 171 | 2.0 | 3.0 | 0.07 | 0.49 | 0.42 | 95 | 1011.5 |
| 20260506133300 | 56 | 168 | 2.0 | 3.0 | 0.07 | 0.49 | 0.42 | 96 | 1011.5 |
| 20260506132800 | 56 | 168 | 2.0 | 3.0 | 0.07 | 0.49 | 0.42 | 95 | 1011.6 |
| 20260506132301 | 56 | 251 | 2.0 | 5.0 | 0.07 | 0.49 | 0.41 | 96 | 1011.6 |
| 20260506131259 | 55 | 145 | 1.0 | 5.0 | 0.08 | 0.49 | 0.41 | 95 | 1011.8 |
| 20260506130800 | 55 | 190 | 1.0 | 5.0 | 0.07 | 0.48 | 0.40 | 95 | 1011.8 |
| 20260506125800 | 56 | 75 | 0.0 | 3.0 | 0.06 | 0.48 | 0.39 | 95 | 1011.7 |
| 20260506124801 | 56 | 52 | 1.0 | 3.0 | 0.02 | 0.45 | 0.35 | 95 | 1011.7 |
| 20260506124300 | 56 | 52 | 0.0 | 2.0 | 0.02 | 0.45 | 0.35 | 95 | 1011.5 |
| 20260506123800 | 56 | 52 | 0.0 | 2.0 | 0.02 | 0.45 | 0.35 | 95 | 1011.5 |
| 20260506123300 | 56 | 52 | 1.0 | 3.0 | 0.02 | 0.45 | 0.35 | 95 | 1011.5 |
| 20260506122801 | 56 | 52 | 1.0 | 3.0 | 0.02 | 0.46 | 0.35 | 95 | 1011.7 |
| 20260506122300 | 56 | 69 | 0.0 | 2.0 | 0.01 | 0.45 | 0.34 | 95 | 1011.7 |
| 20260506121759 | 56 | 46 | 0.0 | 2.0 | 0.00 | 0.44 | 0.33 | 95 | 1011.7 |
| 20260506121301 | 56 | 43 | 1.0 | 2.0 | 0.00 | 0.44 | 0.33 | 95 | 1011.7 |
| 20260506120759 | 56 | 42 | 1.0 | 3.0 | 0.01 | 0.44 | 0.33 | 95 | 1011.7 |
| 20260506120300 | 56 | 80 | 1.0 | 3.0 | 0.01 | 0.44 | 0.33 | 95 | 1011.7 |
| 20260506115801 | 56 | 123 | 1.0 | 3.0 | 0.02 | 0.44 | 0.33 | 95 | 1011.8 |
| 20260506115300 | 56 | 79 | 0.0 | 3.0 | 0.02 | 0.44 | 0.33 | 96 | 1011.8 |
| 20260506114800 | 56 | 79 | 0.0 | 2.0 | 0.02 | 0.44 | 0.33 | 96 | 1011.8 |
| 20260506114301 | 56 | 79 | 0.0 | 2.0 | 0.02 | 0.44 | 0.33 | 96 | 1012.0 |
| 20260506113800 | 56 | 79 | 0.0 | 3.0 | 0.02 | 0.44 | 0.33 | 96 | 1012.0 |
| 20260506113301 | 56 | 79 | 0.0 | 3.0 | 0.02 | 0.44 | 0.33 | 96 | 1012.0 |
| 20260506112800 | 56 | 111 | 0.0 | 2.0 | 0.02 | 0.44 | 0.33 | 95 | 1012.1 |
| 20260506112301 | 56 | 111 | 0.0 | 2.0 | 0.02 | 0.44 | 0.33 | 96 | 1012.1 |
| 20260506111800 | 56 | 111 | 0.0 | 2.0 | 0.02 | 0.44 | 0.33 | 96 | 1012.1 |
| 20260506111300 | 56 | 111 | 0.0 | 2.0 | 0.02 | 0.44 | 0.33 | 96 | 1012.2 |
| 20260506105800 | 56 | 128 | 0.0 | 3.0 | 0.00 | 0.43 | 0.31 | 96 | 1012.3 |
| 20260506105300 | 56 | 178 | 0.0 | 2.0 | 0.00 | 0.43 | 0.31 | 96 | 1012.3 |
| 20260506104800 | 56 | 178 | 0.0 | 2.0 | 0.00 | 0.44 | 0.31 | 97 | 1012.3 |
| 20260506104300 | 56 | 217 | 0.0 | 0.0 | 0.00 | 0.44 | 0.31 | 97 | 1012.4 |
| 20260506103800 | 55 | 224 | 0.0 | 2.0 | 0.00 | 0.44 | 0.31 | 97 | 1012.4 |
| 20260506103300 | 55 | 224 | 2.0 | 2.0 | 0.00 | 0.46 | 0.31 | 96 | 1012.4 |
| 20260506102800 | 55 | 224 | 2.0 | 5.0 | 0.00 | 0.46 | 0.31 | 96 | 1012.5 |
| 20260506101800 | 55 | 238 | 1.0 | 5.0 | 0.00 | 0.48 | 0.31 | 96 | 1012.5 |
| 20260506100800 | 55 | 169 | 0.0 | 2.0 | 0.00 | 0.48 | 0.31 | 96 | 1012.4 |
| 20260506100303 | 55 | 169 | 0.0 | 3.0 | 0.00 | 0.50 | 0.31 | 96 | 1012.4 |
| 20260506095800 | 56 | 169 | 0.0 | 3.0 | 0.00 | 0.50 | 0.31 | 97 | 1012.6 |
| 20260506095301 | 56 | 81 | 1.0 | 2.0 | 0.00 | 0.52 | 0.31 | 97 | 1012.6 |
| 20260506094800 | 55 | 78 | 1.0 | 3.0 | 0.00 | 0.52 | 0.31 | 97 | 1012.6 |
| 20260506093800 | 55 | 79 | 1.0 | 5.0 | 0.00 | 0.52 | 0.31 | 97 | 1012.5 |
| 20260506091300 | 55 | 65 | 2.0 | 5.0 | 0.02 | 0.54 | 0.31 | 97 | 1012.4 |
| 20260506090800 | 55 | 64 | 2.0 | 5.0 | 0.02 | 0.54 | 0.31 | 97 | 1012.4 |
| 20260506090301 | 55 | 75 | 1.0 | 5.0 | 0.03 | 0.54 | 0.31 | 97 | 1012.4 |
| 20260506085800 | 55 | 254 | 1.0 | 2.0 | 0.03 | 0.54 | 0.31 | 97 | 1012.3 |
| 20260506085300 | 55 | 254 | 0.0 | 2.0 | 0.04 | 0.54 | 0.31 | 97 | 1012.3 |
| 20260506084800 | 55 | 254 | 0.0 | 2.0 | 0.04 | 0.54 | 0.31 | 97 | 1012.3 |
| 20260506084300 | 55 | 254 | 0.0 | 2.0 | 0.05 | 0.56 | 0.31 | 97 | 1012.3 |
| 20260506083800 | 54 | 254 | 0.0 | 2.0 | 0.06 | 0.56 | 0.31 | 97 | 1012.3 |
| 20260506083300 | 54 | 254 | 0.0 | 2.0 | 0.06 | 0.56 | 0.31 | 97 | 1012.3 |
| 20260506082801 | 54 | 254 | 0.0 | 2.0 | 0.07 | 0.56 | 0.31 | 97 | 1012.4 |
| 20260506082301 | 54 | 254 | 0.0 | 1.0 | 0.07 | 0.56 | 0.31 | 97 | 1012.4 |
| 20260506081800 | 53 | 254 | 0.0 | 1.0 | 0.07 | 0.57 | 0.31 | 97 | 1012.4 |
| 20260506081300 | 53 | 256 | 2.0 | 2.0 | 0.06 | 0.56 | 0.29 | 97 | 1012.4 |
| 20260506080300 | 53 | 256 | 0.0 | 3.0 | 0.07 | 0.55 | 0.28 | 97 | 1012.4 |
| 20260506073301 | 53 | 188 | 0.0 | 5.0 | 0.12 | 0.52 | 0.25 | 97 | 1012.6 |
| 20260506072800 | 53 | 186 | 0.0 | 3.0 | 0.13 | 0.50 | 0.24 | 97 | 1012.5 |
| 20260506072300 | 53 | 247 | 0.0 | 2.0 | 0.14 | 0.50 | 0.24 | 97 | 1012.5 |
| 20260506071801 | 53 | 248 | 0.0 | 2.0 | 0.16 | 0.50 | 0.24 | 96 | 1012.5 |
| 20260506071301 | 53 | 248 | 0.0 | 2.0 | 0.15 | 0.49 | 0.23 | 96 | 1012.7 |
| 20260506070800 | 53 | 248 | 0.0 | 2.0 | 0.15 | 0.48 | 0.22 | 96 | 1012.7 |
| 20260506070300 | 53 | 248 | 0.0 | 0.0 | 0.16 | 0.47 | 0.21 | 96 | 1012.7 |
| 20260506062300 | 53 | 79 | 0.0 | 2.0 | 0.10 | 0.36 | 0.10 | 96 | 1012.5 |
| 20260506061801 | 53 | 78 | 0.0 | 2.0 | 0.08 | 0.34 | 0.08 | 96 | 1012.5 |
| 20260506061301 | 53 | 78 | 0.0 | 2.0 | 0.08 | 0.34 | 0.08 | 96 | 1012.6 |
| 20260506060800 | 52 | 78 | 0.0 | 2.0 | 0.07 | 0.33 | 0.07 | 96 | 1012.6 |
| 20260506060300 | 52 | 273 | 0.0 | 0.0 | 0.05 | 0.31 | 0.05 | 96 | 1012.6 |
| 20260506050800 | 52 | 281 | 0.0 | 0.0 | 0.00 | 0.26 | 0.00 | 96 | 1012.6 |
| 20260506050301 | 52 | 281 | 2.0 | 3.0 | 0.00 | 0.26 | 0.00 | 96 | 1012.6 |
| 20260506044300 | 52 | 261 | 1.0 | 3.0 | 0.00 | 0.26 | 0.00 | 96 | 1012.4 |
| 20260506043801 | 52 | 261 | 1.0 | 3.0 | 0.00 | 0.26 | 0.00 | 96 | 1012.4 |
| 20260506043300 | 52 | 288 | 0.0 | 3.0 | 0.00 | 0.26 | 0.00 | 96 | 1012.4 |
| 20260506042801 | 52 | 16 | 0.0 | 2.0 | 0.00 | 0.26 | 0.00 | 96 | 1012.5 |
| 20260506041301 | 52 | 278 | 0.0 | 5.0 | 0.00 | 0.26 | 0.00 | 96 | 1012.8 |
| 20260506040801 | 52 | 311 | 0.0 | 5.0 | 0.00 | 0.26 | 0.00 | 96 | 1012.8 |
| 20260506040300 | 52 | 339 | 0.0 | 1.0 | 0.00 | 0.26 | 0.00 | 96 | 1012.8 |
| 20260506035301 | 52 | 339 | 1.0 | 2.0 | 0.00 | 0.26 | 0.00 | 96 | 1012.9 |
| 20260506034301 | 52 | 262 | 0.0 | 2.0 | 0.00 | 0.26 | 0.00 | 96 | 1013.0 |
| 20260506033801 | 52 | 262 | 0.0 | 2.0 | 0.00 | 0.26 | 0.00 | 96 | 1013.0 |
| 20260506032801 | 52 | 192 | 0.0 | 1.0 | 0.00 | 0.26 | 0.00 | 96 | 1013.1 |
| 20260506032301 | 52 | 192 | 0.0 | 1.0 | 0.00 | 0.26 | 0.00 | 96 | 1013.1 |
| 20260506031801 | 52 | 192 | 0.0 | 0.0 | 0.00 | 0.26 | 0.00 | 96 | 1013.1 |
| 20260506031301 | 52 | 192 | 0.0 | 3.0 | 0.00 | 0.26 | 0.00 | 96 | 1013.4 |
| 20260506030801 | 52 | 192 | 0.0 | 3.0 | 0.00 | 0.26 | 0.00 | 96 | 1013.4 |
| 20260506030301 | 52 | 3 | 0.0 | 2.0 | 0.00 | 0.26 | 0.00 | 96 | 1013.4 |
| 20260506025801 | 52 | 337 | 0.0 | 2.0 | 0.00 | 0.26 | 0.00 | 96 | 1013.2 |
| 20260506025305 | 52 | 337 | 0.0 | 2.0 | 0.00 | 0.26 | 0.00 | 96 | 1013.2 |
| 20260506023801 | 52 | 337 | 0.0 | 2.0 | 0.00 | 0.26 | 0.00 | 96 | 1013.3 |
| 20260506022801 | 52 | 340 | 0.0 | 2.0 | 0.00 | 0.26 | 0.00 | 96 | 1013.2 |
| 20260506022300 | 52 | 341 | 0.0 | 2.0 | 0.00 | 0.26 | 0.00 | 96 | 1013.2 |
| 20260506021801 | 52 | 341 | 0.0 | 3.0 | 0.00 | 0.26 | 0.00 | 96 | 1013.2 |
| 20260506021301 | 52 | 341 | 0.0 | 3.0 | 0.00 | 0.26 | 0.00 | 96 | 1013.4 |
| 20260506020801 | 52 | 306 | 0.0 | 2.0 | 0.00 | 0.26 | 0.00 | 96 | 1013.4 |
| 20260506020301 | 52 | 8 | 0.0 | 2.0 | 0.00 | 0.26 | 0.00 | 96 | 1013.4 |
| 20260506015301 | 52 | 17 | 0.0 | 2.0 | 0.00 | 0.26 | 0.00 | 96 | 1013.5 |
| 20260506014800 | 52 | 17 | 0.0 | 2.0 | 0.00 | 0.26 | 0.00 | 96 | 1013.5 |
| 20260506014300 | 52 | 17 | 0.0 | 2.0 | 0.00 | 0.26 | 0.00 | 96 | 1013.5 |
| 20260506013801 | 52 | 17 | 0.0 | 3.0 | 0.00 | 0.26 | 0.00 | 96 | 1013.5 |
| 20260506013301 | 52 | 17 | 0.0 | 3.0 | 0.00 | 0.26 | 0.00 | 96 | 1013.5 |
| 20260506012301 | 52 | 24 | 0.0 | 2.0 | 0.00 | 0.26 | 0.00 | 96 | 1013.5 |
| 20260506011801 | 52 | 24 | 0.0 | 2.0 | 0.00 | 0.26 | 0.00 | 96 | 1013.5 |
| 20260506011301 | 52 | 284 | 0.0 | 1.0 | 0.00 | 0.26 | 0.00 | 96 | 1013.5 |
| 20260506010301 | 52 | 280 | 1.0 | 3.0 | 0.00 | 0.26 | 0.00 | 96 | 1013.5 |
| 20260506005801 | 52 | 280 | 1.0 | 3.0 | 0.00 | 0.26 | 0.00 | 96 | 1013.5 |
| 20260506005301 | 52 | 280 | 1.0 | 3.0 | 0.00 | 0.26 | 0.00 | 96 | 1013.5 |
| 20260506004801 | 53 | 280 | 1.0 | 3.0 | 0.00 | 0.26 | 0.00 | 96 | 1013.5 |
| 20260506004301 | 53 | 282 | 0.0 | 2.0 | 0.00 | 0.26 | 0.00 | 96 | 1013.7 |
| 20260506003801 | 53 | 282 | 0.0 | 2.0 | 0.00 | 0.26 | 0.00 | 96 | 1013.7 |
| 20260506003301 | 53 | 282 | 0.0 | 2.0 | 0.00 | 0.26 | 0.00 | 96 | 1013.7 |
| 20260506002801 | 53 | 282 | 0.0 | 1.0 | 0.00 | 0.26 | 0.00 | 96 | 1013.7 |
| 20260506002301 | 53 | 282 | 0.0 | 1.0 | 0.00 | 0.26 | 0.00 | 96 | 1013.7 |
| 20260506001301 | 53 | 282 | 0.0 | 0.0 | 0.00 | 0.26 | 0.00 | 96 | 1013.8 |
| 20260506000801 | 53 | 282 | 0.0 | 2.0 | 0.00 | 0.26 | 0.00 | 96 | 1013.8 |
| 20260506000302 | 53 | 282 | 1.0 | 3.0 | 0.00 | 0.26 | 0.00 | 96 | 1013.8 |
| 20260505235801 | 53 | 282 | 1.0 | 3.0 | 0.00 | 0.26 | 0.00 | 96 | 1013.9 |
| 20260505235301 | 53 | 282 | 0.0 | 2.0 | 0.00 | 0.26 | 0.00 | 96 | 1013.9 |
| 20260505234302 | 53 | 0 | 0.0 | 1.0 | 0.00 | 0.26 | 0.00 | 96 | 1013.9 |
| 20260505233801 | 53 | 0 | 0.0 | 1.0 | 0.00 | 0.26 | 0.00 | 96 | 1013.9 |
| 20260505233301 | 53 | 1 | 0.0 | 0.0 | 0.00 | 0.26 | 0.00 | 96 | 1013.9 |
| 20260505232801 | 53 | 1 | 0.0 | 0.0 | 0.00 | 0.26 | 0.00 | 96 | 1014.0 |
| 20260505232305 | 53 | 1 | 0.0 | 2.0 | 0.00 | 0.26 | 0.00 | 96 | 1014.0 |
| 20260505231802 | 53 | 1 | 0.0 | 2.0 | 0.00 | 0.26 | 0.00 | 96 | 1014.0 |
| 20260505231301 | 53 | 1 | 0.0 | 2.0 | 0.00 | 0.26 | 0.00 | 96 | 1014.1 |
| 20260505230301 | 53 | 274 | 0.0 | 2.0 | 0.00 | 0.26 | 0.00 | 96 | 1014.1 |
| 20260505225801 | 53 | 274 | 0.0 | 0.0 | 0.00 | 0.26 | 0.00 | 96 | 1014.3 |
| 20260505225301 | 53 | 274 | 0.0 | 2.0 | 0.00 | 0.26 | 0.00 | 96 | 1014.3 |
| 20260505224802 | 53 | 274 | 0.0 | 2.0 | 0.00 | 0.26 | 0.00 | 96 | 1014.3 |
| 20260505223801 | 53 | 276 | 0.0 | 2.0 | 0.00 | 0.26 | 0.00 | 96 | 1014.2 |
| 20260505223302 | 53 | 276 | 0.0 | 2.0 | 0.00 | 0.26 | 0.00 | 96 | 1014.2 |
| 20260505222801 | 53 | 276 | 0.0 | 0.0 | 0.00 | 0.26 | 0.00 | 96 | 1014.3 |
| 20260505221802 | 53 | 276 | 1.0 | 2.0 | 0.00 | 0.26 | 0.00 | 96 | 1014.3 |
| 20260505221301 | 53 | 276 | 1.0 | 5.0 | 0.00 | 0.26 | 0.00 | 96 | 1014.3 |
| 20260505220849 | 53 | 278 | 1.0 | 5.0 | 0.00 | 0.26 | 0.00 | 96 | 1014.3 |
| 20260505220302 | 53 | 262 | 1.0 | 3.0 | 0.00 | 0.26 | 0.00 | 96 | 1014.3 |
| 20260505215305 | 53 | 238 | 0.0 | 3.0 | 0.00 | 0.26 | 0.26 | 96 | 1014.4 |
| 20260505214801 | 53 | 237 | 0.0 | 2.0 | 0.00 | 0.26 | 0.26 | 96 | 1014.4 |
| 20260505214302 | 53 | 237 | 0.0 | 2.0 | 0.00 | 0.26 | 0.26 | 96 | 1014.3 |
| 20260505213802 | 53 | 237 | 0.0 | 2.0 | 0.00 | 0.26 | 0.26 | 96 | 1014.3 |
| 20260505213301 | 53 | 237 | 0.0 | 2.0 | 0.00 | 0.26 | 0.26 | 96 | 1014.3 |
| 20260505212802 | 53 | 237 | 0.0 | 2.0 | 0.00 | 0.26 | 0.26 | 96 | 1014.4 |
| 20260505212302 | 53 | 237 | 0.0 | 3.0 | 0.00 | 0.26 | 0.26 | 96 | 1014.4 |
| 20260505211802 | 53 | 255 | 0.0 | 5.0 | 0.00 | 0.26 | 0.26 | 96 | 1014.4 |
| 20260505211301 | 53 | 253 | 0.0 | 5.0 | 0.00 | 0.26 | 0.26 | 96 | 1014.5 |
| 20260505210802 | 53 | 285 | 0.0 | 3.0 | 0.00 | 0.26 | 0.26 | 96 | 1014.5 |
| 20260505210301 | 53 | 295 | 0.0 | 3.0 | 0.00 | 0.26 | 0.26 | 96 | 1014.5 |
| 20260505205801 | 53 | 325 | 0.0 | 0.0 | 0.00 | 0.26 | 0.26 | 96 | 1014.5 |
| 20260505205304 | 53 | 325 | 0.0 | 0.0 | 0.00 | 0.26 | 0.26 | 96 | 1014.5 |
| 20260505204801 | 53 | 325 | 0.0 | 2.0 | 0.00 | 0.26 | 0.26 | 96 | 1014.5 |
| 20260505204302 | 53 | 325 | 0.0 | 2.0 | 0.00 | 0.26 | 0.26 | 96 | 1014.6 |
| 20260505203802 | 53 | 325 | 0.0 | 2.0 | 0.00 | 0.26 | 0.26 | 96 | 1014.6 |
| 20260505203302 | 53 | 325 | 0.0 | 0.0 | 0.00 | 0.26 | 0.26 | 96 | 1014.6 |
| 20260505202801 | 53 | 325 | 0.0 | 0.0 | 0.00 | 0.26 | 0.26 | 96 | 1014.7 |
| 20260505202301 | 53 | 325 | 0.0 | 0.0 | 0.00 | 0.26 | 0.26 | 96 | 1014.7 |
| 20260505201301 | 53 | 325 | 1.0 | 2.0 | 0.00 | 0.26 | 0.26 | 96 | 1014.8 |
| 20260505200801 | 53 | 321 | 1.0 | 3.0 | 0.00 | 0.26 | 0.26 | 96 | 1014.8 |
| 20260505200302 | 53 | 321 | 0.0 | 3.0 | 0.00 | 0.26 | 0.26 | 96 | 1014.8 |
| 20260505195802 | 53 | 323 | 0.0 | 3.0 | 0.00 | 0.26 | 0.26 | 96 | 1014.7 |
| 20260505195305 | 53 | 323 | 0.0 | 2.0 | 0.00 | 0.26 | 0.26 | 96 | 1014.7 |
| 20260505194301 | 53 | 323 | 0.0 | 2.0 | 0.00 | 0.26 | 0.26 | 96 | 1014.6 |
| 20260505193802 | 53 | 323 | 0.0 | 2.0 | 0.00 | 0.26 | 0.26 | 96 | 1014.6 |
| 20260505193301 | 53 | 323 | 0.0 | 2.0 | 0.00 | 0.26 | 0.26 | 96 | 1014.6 |
| 20260505192803 | 53 | 323 | 0.0 | 1.0 | 0.00 | 0.26 | 0.26 | 96 | 1014.5 |
| 20260505192301 | 53 | 323 | 0.0 | 2.0 | 0.00 | 0.26 | 0.26 | 95 | 1014.5 |
| 20260505191302 | 53 | 323 | 0.0 | 2.0 | 0.00 | 0.26 | 0.26 | 95 | 1014.5 |
| 20260505190801 | 53 | 323 | 0.0 | 0.0 | 0.00 | 0.26 | 0.26 | 95 | 1014.5 |
| 20260505185802 | 53 | 323 | 0.0 | 0.0 | 0.00 | 0.26 | 0.26 | 95 | 1014.4 |
| 20260505185305 | 53 | 323 | 0.0 | 0.0 | 0.01 | 0.26 | 0.26 | 95 | 1014.4 |
| 20260505184802 | 53 | 323 | 0.0 | 0.0 | 0.01 | 0.26 | 0.26 | 95 | 1014.4 |
| 20260505184302 | 53 | 323 | 0.0 | 0.0 | 0.01 | 0.26 | 0.26 | 95 | 1014.2 |
| 20260505183801 | 53 | 323 | 0.0 | 0.0 | 0.01 | 0.26 | 0.26 | 95 | 1014.2 |
| 20260505183301 | 53 | 323 | 0.0 | 0.0 | 0.02 | 0.26 | 0.26 | 95 | 1014.2 |
| 20260505182801 | 53 | 323 | 0.0 | 1.0 | 0.02 | 0.26 | 0.26 | 95 | 1014.2 |
| 20260505182305 | 53 | 323 | 0.0 | 1.0 | 0.02 | 0.26 | 0.26 | 95 | 1014.2 |
| 20260505180802 | 53 | 322 | 0.0 | 2.0 | 0.03 | 0.26 | 0.26 | 95 | 1014.1 |
| 20260505180302 | 53 | 322 | 0.0 | 2.0 | 0.03 | 0.26 | 0.26 | 95 | 1014.1 |
| 20260505175802 | 53 | 322 | 0.0 | 2.0 | 0.03 | 0.26 | 0.26 | 95 | 1014.1 |
| 20260505175305 | 54 | 322 | 0.0 | 0.0 | 0.02 | 0.25 | 0.25 | 95 | 1014.1 |
| 20260505174801 | 54 | 322 | 0.0 | 0.0 | 0.02 | 0.25 | 0.25 | 95 | 1014.1 |
| 20260505174302 | 54 | 322 | 0.0 | 2.0 | 0.02 | 0.25 | 0.25 | 95 | 1014.1 |
| 20260505173802 | 54 | 322 | 0.0 | 2.0 | 0.03 | 0.25 | 0.25 | 95 | 1014.1 |
| 20260505173302 | 54 | 33 | 0.0 | 0.0 | 0.02 | 0.24 | 0.24 | 95 | 1014.1 |
| 20260505172801 | 54 | 33 | 0.0 | 0.0 | 0.02 | 0.24 | 0.24 | 95 | 1014.1 |
| 20260505172305 | 54 | 33 | 0.0 | 0.0 | 0.02 | 0.24 | 0.24 | 95 | 1014.1 |
| 20260505171802 | 54 | 33 | 0.0 | 0.0 | 0.02 | 0.24 | 0.24 | 95 | 1014.1 |
| 20260505171302 | 54 | 33 | 0.0 | 0.0 | 0.01 | 0.23 | 0.23 | 95 | 1014.2 |
| 20260505170802 | 54 | 33 | 0.0 | 0.0 | 0.01 | 0.23 | 0.23 | 95 | 1014.2 |
| 20260505170301 | 54 | 33 | 1.0 | 2.0 | 0.01 | 0.23 | 0.23 | 95 | 1014.2 |
| 20260505165305 | 54 | 33 | 0.0 | 3.0 | 0.03 | 0.23 | 0.23 | 95 | 1014.2 |
| 20260505164802 | 54 | 193 | 0.0 | 3.0 | 0.03 | 0.23 | 0.23 | 95 | 1014.2 |
| 20260505164302 | 54 | 213 | 0.0 | 0.0 | 0.03 | 0.23 | 0.23 | 95 | 1014.4 |
| 20260505163802 | 54 | 286 | 0.0 | 0.0 | 0.02 | 0.22 | 0.22 | 95 | 1014.4 |
| 20260505163301 | 54 | 286 | 0.0 | 0.0 | 0.02 | 0.22 | 0.22 | 95 | 1014.4 |
| 20260505162801 | 54 | 286 | 0.0 | 0.0 | 0.02 | 0.22 | 0.22 | 95 | 1014.5 |
| 20260505162301 | 54 | 286 | 0.0 | 0.0 | 0.02 | 0.22 | 0.22 | 95 | 1014.5 |
| 20260505161801 | 54 | 286 | 0.0 | 0.0 | 0.02 | 0.22 | 0.22 | 95 | 1014.5 |
| 20260505161302 | 55 | 286 | 0.0 | 0.0 | 0.02 | 0.22 | 0.22 | 95 | 1014.6 |